Time,TemperatureF,DewpointF,PressureIn,WindDirection,WindDirectionDegrees,WindSpeedMPH,WindSpeedGustMPH,Humidity,HourlyPrecipIn,Conditions,Clouds,dailyrainin,SolarRadiationWatts/m^2,SoftwareType,DateUTC
2014-01-28 00:23:00,56.0,54.0,-100.00,South,184,2.0,-999.0,93,0.00,,,-99.99,0.700000,,2014-01-28 05:23:00,
2014-01-28 00:33:00,56.0,54.0,-100.00,South,184,2.0,-999.0,93,0.00,,,-99.99,0.700000,,2014-01-28 05:33:00,
2014-01-28 00:53:00,55.0,54.0,-100.00,SSE,158,4.0,-999.0,95,0.00,,,-99.99,0.800000,,2014-01-28 05:53:00,
2014-01-28 01:22:00,55.0,53.0,-100.00,WNW,286,2.0,-999.0,95,0.00,,,-99.99,0.900000,,2014-01-28 06:22:00,
2014-01-28 01:52:00,54.0,53.0,-100.00,WNW,292,2.0,-999.0,96,0.00,,,-99.99,0.900000,,2014-01-28 06:52:00,
2014-01-28 02:22:00,53.0,52.0,-100.00,South,173,2.0,-999.0,96,0.00,,,-99.99,0.900000,,2014-01-28 07:22:00,
2014-01-28 02:52:00,52.0,51.0,-100.00,SE,128,1.0,-999.0,97,0.00,,,-99.99,0.900000,,2014-01-28 07:52:00,
2014-01-28 03:22:00,52.0,51.0,-100.00,North,6,1.0,-999.0,97,0.00,,,-99.99,0.900000,,2014-01-28 08:22:00,
2014-01-28 03:52:00,52.0,51.0,-100.00,South,181,1.0,-999.0,97,0.00,,,-99.99,1.000000,,2014-01-28 08:52:00,
2014-01-28 04:22:00,52.0,52.0,-100.00,West,270,1.0,-999.0,97,0.00,,,-99.99,1.000000,,2014-01-28 09:22:00,
2014-01-28 04:54:00,52.0,51.0,-100.00,SSE,156,2.0,-999.0,97,0.00,,,-99.99,1.000000,,2014-01-28 09:54:00,
2014-01-28 05:23:00,52.0,51.0,-100.00,ESE,103,2.0,-999.0,97,0.00,,,-99.99,1.000000,,2014-01-28 10:23:00,
2014-01-28 05:53:00,52.0,51.0,-100.00,East,94,2.0,-999.0,97,0.00,,,-99.99,1.000000,,2014-01-28 10:53:00,
2014-01-28 06:22:00,52.0,52.0,-100.00,NNE,19,1.0,-999.0,97,0.00,,,-99.99,1.100000,,2014-01-28 11:22:00,
2014-01-28 06:52:00,54.0,53.0,-100.00,North,6,2.0,-999.0,97,0.00,,,-99.99,1.100000,,2014-01-28 11:52:00,
2014-01-28 07:22:00,54.0,53.0,-100.00,West,281,1.0,-999.0,97,0.00,,,-99.99,1.200000,,2014-01-28 12:22:00,
2014-01-28 07:52:00,55.0,54.0,-100.00,ESE,119,2.0,-999.0,97,0.00,,,-99.99,9.500000,,2014-01-28 12:52:00,
2014-01-28 08:22:00,55.0,54.0,-100.00,ESE,110,2.0,-999.0,97,0.00,,,-99.99,22.000000,,2014-01-28 13:22:00,
2014-01-28 08:52:00,56.0,55.0,-100.00,SE,140,2.0,-999.0,97,0.00,,,-99.99,29.299999,,2014-01-28 13:52:00,
2014-01-28 09:22:00,57.0,56.0,-100.00,ESE,106,3.0,-999.0,97,0.00,,,-99.99,85.300003,,2014-01-28 14:22:00,
2014-01-28 09:52:00,59.0,58.0,-100.00,East,99,2.0,-999.0,95,0.00,,,-99.99,122.500000,,2014-01-28 14:52:00,
2014-01-28 10:22:00,61.0,59.0,-100.00,ESE,116,3.0,-999.0,94,0.00,,,-99.99,88.500000,,2014-01-28 15:22:00,
2014-01-28 10:53:00,63.0,60.0,-100.00,ESE,102,3.0,-999.0,91,0.00,,,-99.99,146.500000,,2014-01-28 15:53:00,
2014-01-28 11:23:00,65.0,61.0,-100.00,ENE,62,1.0,-999.0,88,0.00,,,-99.99,230.899994,,2014-01-28 16:23:00,
2014-01-28 11:53:00,65.0,61.0,-100.00,West,262,3.0,-999.0,88,0.00,,,-99.99,124.599998,,2014-01-28 16:53:00,
2014-01-28 12:22:00,66.0,62.0,-100.00,WSW,258,1.0,-999.0,86,0.00,,,-99.99,306.000000,,2014-01-28 17:22:00,
2014-01-28 12:53:00,66.0,63.0,-100.00,NW,306,6.0,-999.0,87,0.00,,,-99.99,327.600006,,2014-01-28 17:53:00,
2014-01-28 13:22:00,66.0,63.0,-100.00,NW,319,4.0,-999.0,87,0.00,,,-99.99,190.000000,,2014-01-28 18:22:00,
2014-01-28 13:52:00,67.0,63.0,-100.00,NW,316,5.0,-999.0,87,0.00,,,-99.99,220.899994,,2014-01-28 18:52:00,
2014-01-28 14:22:00,69.0,64.0,-100.00,NW,304,4.0,-999.0,84,0.00,,,-99.99,565.799988,,2014-01-28 19:22:00,
2014-01-28 14:52:00,67.0,62.0,-100.00,North,3,8.0,-999.0,85,0.00,,,-99.99,46.400002,,2014-01-28 19:52:00,
2014-01-28 15:22:00,63.0,60.0,-100.00,NNE,14,9.0,-999.0,90,0.00,,,-99.99,63.700001,,2014-01-28 20:22:00,
2014-01-28 15:52:00,60.0,59.0,-100.00,NNE,13,7.0,-999.0,95,0.05,,,-99.99,160.600006,,2014-01-28 20:52:00,
2014-01-28 16:22:00,59.0,58.0,-100.00,North,11,8.0,-999.0,95,0.00,,,-99.99,89.500000,,2014-01-28 21:22:00,
2014-01-28 16:53:00,59.0,57.0,-100.00,NNE,30,7.0,-999.0,95,0.00,,,-99.99,58.900002,,2014-01-28 21:53:00,
2014-01-28 17:23:00,58.0,57.0,-100.00,NNE,14,6.0,-999.0,96,0.00,,,-99.99,24.900000,,2014-01-28 22:23:00,
2014-01-28 17:53:00,58.0,56.0,-100.00,NNE,24,7.0,-999.0,96,0.00,,,-99.99,14.000000,,2014-01-28 22:53:00,
2014-01-28 18:22:00,57.0,56.0,-100.00,North,354,7.0,-999.0,96,0.00,,,-99.99,2.000000,,2014-01-28 23:22:00,
2014-01-28 18:53:00,56.0,55.0,-100.00,North,359,7.0,-999.0,96,0.00,,,-99.99,0.800000,,2014-01-28 23:53:00,
2014-01-28 19:22:00,55.0,54.0,-100.00,North,5,7.0,-999.0,96,0.00,,,-99.99,0.700000,,2014-01-29 00:22:00,
2014-01-28 19:52:00,54.0,53.0,-100.00,NNE,12,6.0,-999.0,96,0.00,,,-99.99,0.900000,,2014-01-29 00:52:00,
2014-01-28 20:22:00,54.0,53.0,-100.00,NNE,22,5.0,-999.0,97,0.00,,,-99.99,1.100000,,2014-01-29 01:22:00,
2014-01-28 20:52:00,54.0,53.0,-100.00,North,357,6.0,-999.0,96,0.00,,,-99.99,1.100000,,2014-01-29 01:52:00,
2014-01-28 21:22:00,53.0,52.0,-100.00,NNW,340,7.0,-999.0,96,0.05,,,-99.99,1.100000,,2014-01-29 02:22:00,
2014-01-28 21:52:00,53.0,52.0,-100.00,North,351,6.0,-999.0,97,0.00,,,-99.99,1.000000,,2014-01-29 02:52:00,
2014-01-28 22:22:00,52.0,52.0,-100.00,North,357,5.0,-999.0,97,0.00,,,-99.99,1.000000,,2014-01-29 03:22:00,
2014-01-28 22:54:00,53.0,52.0,-100.00,NNE,18,5.0,-999.0,97,0.00,,,-99.99,1.000000,,2014-01-29 03:54:00,
2014-01-28 23:23:00,53.0,52.0,-100.00,NNW,340,7.0,-999.0,97,0.00,,,-99.99,1.000000,,2014-01-29 04:23:00,
2014-01-28 23:53:00,52.0,51.0,-100.00,NNW,334,9.0,-999.0,97,0.00,,,-99.99,1.000000,,2014-01-29 04:53:00,